Helicity
233 178 154 142 105 109 113 116 134 143 148 159 167 154 157 143 148 157 152 135 129 110
244 215 160 126 113 107 108 115 118 121 125 129 132 140 148 148 149 164 175 183 179 159
227 185 156 139 131 116 112 113 111 113 117 124 131 138 147 149 155 180 170 160 166 167
180 164 158 141 133 130 128 119 114 112 119 123 114 128 138 167 156 161 148 133 131 128
155 149 147 134 127 114 104 96 101 113 118 112 122 139 149 140 131 124 118 105 99 88
137 130 125 118 97 85 103 110 110 107 104 106 111 105 125 135 133 121 110 109 101 99
112 99 101 94 91 104 103 99 102 100 97 104 104 126 152 145 121 124 126 131 135 118
91 86 97 98 105 110 97 103 102 107 102 107 136 133 128 128 137 140 137 134 134 130
101 96 96 109 121 108 102 108 116 109 117 135 129 90 92 121 141 148 149 153 144 139
100 106 116 132 122 106 110 118 113 121 129 135 117 70 82 102 156 175 176 153 164 165
109 114 138 135 114 111 127 122 123 127 138 131 99 56 71 89 158 178 171 177 152 138
118 135 147 129 119 129 134 133 128 134 136 122 85 43 67 92 156 181 185 166 145 131
138 153 144 137 134 134 145 128 134 131 131 74 89 48 52 95 169 183 200 138 141 133
151 152 146 139 145 153 143 138 142 136 127 112 72 75 50 76 151 172 169 131 191 264
Wind_Speed
51 52 54 56 59 64 67 70 72 74 75 78 80 80 81 79 82 83 83 84 85 84
52 53 54 58 62 66 69 70 73 75 77 79 80 81 83 83 86 85 84 86 88 87
51 52 56 60 66 67 67 70 74 77 80 80 81 84 86 86 85 83 86 87 91 91
51 54 58 61 64 66 69 73 76 79 81 82 84 87 87 87 83 87 89 90 91 94
51 55 58 62 66 66 70 73 77 80 85 85 87 87 86 85 85 88 93 95 95 96
53 57 60 64 67 70 74 77 81 85 86 85 86 85 80 86 87 90 91 93 96 96
55 58 62 66 71 74 75 80 85 84 84 83 84 83 87 86 91 91 91 92 95 99
56 59 64 70 73 74 79 82 83 83 81 82 85 82 86 88 91 94 96 96 97 97
58 62 67 71 73 77 81 82 82 81 82 84 81 82 83 89 92 94 95 99 101 101
59 65 67 69 75 78 81 80 80 80 80 83 81 80 86 89 91 92 94 96 100 102
61 65 64 71 75 77 77 80 79 80 80 80 80 83 85 92 90 91 91 95 95 89
61 63 66 73 76 76 78 79 79 78 78 80 78 81 86 91 90 92 94 91 83 76
59 61 68 72 73 74 74 76 76 76 75 75 78 80 85 88 90 93 94 86 76 71
58 60 65 68 70 72 75 75 74 74 74 75 77 79 82 88 88 90 89 82 74 68
Wind_Direction
3 0 2 1 357 353 351 350 349 347 346 345 343 342 340 338 335 332 329 326 322 319
5 4 2 358 355 352 351 351 350 350 348 347 345 344 341 339 335 332 331 328 324 320
3 2 358 355 352 353 355 355 352 351 349 347 346 344 342 339 336 335 332 329 325 322
2 359 356 356 356 357 356 355 353 351 349 347 345 343 341 339 338 336 333 331 327 322
1 358 356 356 355 357 355 354 353 351 348 346 345 344 342 342 340 337 333 331 328 323
359 355 353 353 353 353 352 352 351 349 349 347 346 345 346 342 340 337 334 331 327 323
356 354 352 351 351 351 352 351 349 350 349 349 348 347 345 343 340 337 335 332 327 323
354 353 351 350 351 352 351 350 350 350 350 350 349 348 346 344 342 339 335 332 329 325
353 352 351 351 351 351 350 350 351 352 351 350 351 349 348 345 343 340 337 334 331 327
352 351 352 353 351 351 351 352 352 352 352 351 351 351 349 347 345 342 340 337 333 330
351 351 354 352 352 352 353 352 353 352 353 353 353 351 350 348 347 345 343 340 338 336
352 353 353 352 352 353 353 353 353 354 354 354 353 353 352 351 349 347 346 346 345 343
353 355 353 353 354 355 355 354 355 355 356 355 354 354 354 354 352 350 350 350 350 347
354 355 355 356 356 356 355 355 356 356 357 357 357 356 356 355 355 353 352 353 353 352